Погода в Миякодзиме

Япония     24°46′59″N   125°19′59″E
темп.,
°C
ветер,
м/с
пор.,
м/с
влажн.,
%
обл.,
%
осадки,
мм/ч
давл.,
гПа
погр.,
м
15 апреля, чт
чт1500:00+22всв111182100 0.4 1016827
03:00+21всв101082100 0.6 1014862
06:00+22в8981100 0.3 1014817
09:00+22в997999 0.4 1015777
12:00+23вюв778163 0.0 1014760
15:00+23вюв778096 0.1 1013668
18:00+23юв778176 0.0 1013686
21:00+23юв878253 0.0 1015681
16 апреля, пт
пт1600:00+23юв878248 0.0 1015680
03:00+23юв7781100 0.0 1014749
06:00+23юв7782100 0.0 1014610
09:00+23юв5581100 0.1 1016534
12:00+23юв667999 0.0 1015579
15:00+23юв55799 0.0 1014529
18:00+23юв55790 0.0 1014586
21:00+23юв55791 0.0 1016566
17 апреля, сб
сб1700:00+23юв668021 0.0 1016677
03:00+23юв56815 0.0 1015583
06:00+23ююв44805 0.0 1015530
09:00+23ю227879 0.0 1016375
12:00+24зюз22759 0.0 1016409
15:00+23с668597 0.2 1015649
18:00+23ссв131483100 1.3 1016945
21:00+22ссв15167582 1.3 10181043
18 апреля, вс
вс1800:00+22ссв131470100 0.0 10181121
03:00+21ссв131367100 0.0 10181219
06:00+20ссв13146111 0.0 10181215
09:00+20ссв12135983 0.0 10191127
12:00+20ссв1213595 0.0 10181161
15:00+20св1112595 0.0 10171304
18:00+20св1112590 0.0 10161308
21:00+20св1111615 0.0 10171302
19 апреля, пн
пн1900:00+20св1010635 0.0 10171239
03:00+20св99645 0.0 10161308
06:00+20св10106445 0.0 10151348
09:00+20св101063100 0.0 10161324
12:00+21св10106399 0.0 10161362
15:00+20св1011647 0.0 10141307
18:00+20св1011645 0.0 10141257
21:00+21всв1011650 0.0 10151289